This is the latest recevied weather packets stored in our database for station/object KD2ZLA. If no packets are shown the sender has not sent any weather packets the latest 10 day(s).
| Time | Temp. | Humidity | Pressure | Rain* | Wind** | Luminosity | Snow |
|---|---|---|---|---|---|---|---|
| 1777621992 | 1.11° C | 97% | 1011.3 hPa | 0 mm | - | 0 W/m² | - |
| 1777621687 | 0.56° C | 97% | 1011.6 hPa | 0 mm | - | 0 W/m² | - |
| 1777621078 | 1.11° C | 96% | 1011.3 hPa | 0 mm | - | 0 W/m² | - |
| 1777620775 | 1.11° C | 96% | 1011 hPa | 0 mm | - | 0 W/m² | - |
| 1777620471 | 1.67° C | 97% | 1011.2 hPa | 0 mm | - | 0 W/m² | - |
| 1777620169 | 1.11° C | 96% | 1011.1 hPa | 0 mm | - | 0 W/m² | - |
| 1777619865 | 1.67° C | 96% | 1010.9 hPa | 0 mm | - | 0 W/m² | - |
| 1777619561 | 1.67° C | 96% | 1010.9 hPa | 0 mm | - | 0 W/m² | - |
| 1777619256 | 1.67° C | 96% | 1011 hPa | 0 mm | - | 0 W/m² | - |
| 1777618951 | 1.67° C | 96% | 1011 hPa | 0 mm | - | 0 W/m² | - |
| 1777618646 | 1.67° C | 96% | 1011.1 hPa | 0 mm | - | 0 W/m² | - |
| 1777618341 | 1.67° C | 96% | 1011.1 hPa | 0 mm | - | 0 W/m² | - |
| 1777618039 | 1.67° C | 96% | 1011.1 hPa | 0 mm | - | 0 W/m² | - |
| 1777617735 | 2.22° C | 96% | 1010.8 hPa | 0 mm | - | 0 W/m² | - |
| 1777617434 | 2.78° C | 96% | 1010.9 hPa | 0 mm | - | 0 W/m² | - |
| 1777617133 | 2.78° C | 96% | 1010.8 hPa | 0 mm | - | 0 W/m² | - |
| 1777616828 | 2.78° C | 97% | 1010.8 hPa | 0 mm | - | 0 W/m² | - |
| 1777616523 | 2.78° C | 96% | 1010.7 hPa | 0 mm | - | 0 W/m² | - |
| 1777616219 | 2.78° C | 96% | 1010.6 hPa | 0 mm | - | 0 W/m² | - |
| 1777615916 | 2.78° C | 96% | 1010.6 hPa | 0 mm | - | 0 W/m² | - |
| 1777615613 | 2.78° C | 96% | 1010.7 hPa | 0 mm | - | 0 W/m² | - |
| 1777615310 | 2.78° C | 96% | 1010.6 hPa | 0 mm | - | 0 W/m² | - |
| 1777615008 | 2.78° C | 95% | 1010.6 hPa | 0 mm | - | 0 W/m² | - |
| 1777614705 | 2.78° C | 95% | 1010.4 hPa | 0 mm | - | 0 W/m² | - |
| 1777614400 | 3.33° C | 94% | 1010.8 hPa | 0 mm | - | 0 W/m² | - |
* Rain latest hour (hover to see other rain measurements)
** Current wind speed in m/s (hover to see current wind gust speed)